Indianapolis, IN

3:11 AM EDT on August 20, 2017 (GMT -0400)
Indianapolis International

Weather History for KIND - August, 2014

Change the Weather History Date:

Tuesday, August 19, 2014

  Actual Average Record
Temperature  
Mean Temperature 76 °F 74 °F  
Max Temperature 86 °F 84 °F 100 °F (1936)
Min Temperature 65 °F 64 °F 50 °F (1896)
Degree Days  
Heating Degree Days 0 0  
Month to date heating degree days 2 0  
Since 1 June heating degree days 8 17  
Since 1 July heating degree days 6 1  
Cooling Degree Days 11 9  
Month to date cooling degree days 129 187  
Year to date cooling degree days 643 820  
Since 1 June cooling degree days 539 736  
Growing Degree Days 25 (Base 50)    
Moisture  
Dew Point 67 °F    
Average Humidity 78    
Maximum Humidity 100    
Minimum Humidity 55    
Precipitation  
Precipitation 0.50 in 0.10 in 1.65 in (1906)
Month to date precipitation 0.89 1.92  
Year to date precipitation 28.46 28.12  
Snow  
Snow 0.00 in 0.00 in 0.00 in ()
Month to date snowfall 0.0 0.0  
Since 1 June snowfall 0.0 0.0  
Since 1 July snowfall 0.0 0.0  
Snow Depth 0.00 in    
Sea Level Pressure  
Sea Level Pressure 29.81 in    
Wind  
Wind Speed 9 mph (SW)    
Max Wind Speed 44 mph    
Max Gust Speed 55 mph    
Visibility 7 miles    
Events Rain , Thunderstorm    
T = Trace of Precipitation, MM = Missing Value Source: NWS Daily Summary

Daily Weather History Graph

Daily Weather History Graph

Search for Another Location

Airport or City:

Trip Planner

Search our weather history database for the weather conditions in past years. The results will help you decide how hot, cold, wet, or windy it might be!

Date:

Astronomy

Aug. 19, 2014 Rise Set
Actual Time 7:01 AM EDT 8:35 PM EDT
Civil Twilight 6:32 AM EDT 9:04 PM EDT
Nautical Twilight 5:58 AM EDT 9:38 PM EDT
Astronomical Twilight 5:21 AM EDT 10:14 PM EDT
Moon 1:52 AM EDT (8/19) 4:31 PM EDT (8/19)
Length of Visible Light 14h 31m
Length of Day
13h 34m
Waning Crescent, 29% of the Moon is Illuminated
Aug 19
Waning Crescent
Aug 25
New
Sep 2
First Quarter
Sep 8
Full
Sep 15
Last Quarter

Hourly Weather History & Observations

Time (EDT) Temp. Heat Index Dew Point Humidity Pressure Visibility Wind Dir Wind Speed Gust Speed Precip Events Conditions
12:54 AM 73.0 °F - 66.9 °F 81% 29.82 in 8.0 mi NNW 3.5 mph - N/A   Partly Cloudy
1:54 AM 71.1 °F - 66.9 °F 87% 29.80 in 5.0 mi Calm Calm - N/A   Clear
2:54 AM 69.1 °F - 66.0 °F 90% 29.79 in 5.0 mi West 4.6 mph - N/A   Clear
3:54 AM 68.0 °F - 66.0 °F 93% 29.79 in 4.0 mi West 3.5 mph - N/A   Partly Cloudy
4:54 AM 66.9 °F - 66.0 °F 97% 29.79 in 4.0 mi West 5.8 mph - N/A   Partly Cloudy
5:54 AM 66.9 °F - 64.9 °F 93% 29.81 in 4.0 mi Calm Calm - N/A   Clear
6:54 AM 66.9 °F - 64.9 °F 93% 29.83 in 2.5 mi WSW 6.9 mph - N/A   Clear
7:54 AM 66.9 °F - 66.0 °F 97% 29.82 in 2.0 mi South 3.5 mph - N/A   Clear
8:54 AM 71.1 °F - 68.0 °F 90% 29.85 in 3.0 mi SSW 5.8 mph - N/A   Clear
9:54 AM 75.9 °F - 68.0 °F 76% 29.84 in 6.0 mi SW 8.1 mph - N/A   Haze
10:54 AM 79.0 °F - 69.1 °F 72% 29.82 in 8.0 mi SSW 8.1 mph - N/A   Partly Cloudy
11:54 AM 82.0 °F 84.9 °F 68.0 °F 62% 29.83 in 10.0 mi WSW 11.5 mph - N/A   Scattered Clouds
12:54 PM 84.0 °F 87.0 °F 68.0 °F 58% 29.83 in 10.0 mi SSW 12.7 mph - N/A   Scattered Clouds
1:54 PM 84.0 °F 86.5 °F 66.9 °F 56% 29.83 in 10.0 mi SSW 13.8 mph - N/A   Mostly Cloudy
2:54 PM 84.0 °F 86.5 °F 66.9 °F 56% 29.81 in 10.0 mi SW 16.1 mph 24.2 mph N/A   Mostly Cloudy
3:54 PM 84.0 °F 86.5 °F 66.9 °F 56% 29.79 in 10.0 mi SSW 19.6 mph 23.0 mph N/A   Mostly Cloudy
4:54 PM 82.0 °F 84.5 °F 66.9 °F 60% 29.77 in 10.0 mi North - - N/A   Mostly Cloudy
5:54 PM 82.9 °F 86.5 °F 69.1 °F 63% 29.78 in 10.0 mi SW 12.7 mph - N/A   Mostly Cloudy
6:54 PM 82.0 °F 85.5 °F 69.1 °F 65% 29.79 in 10.0 mi SSW 10.4 mph - N/A   Mostly Cloudy
7:39 PM 80.1 °F 82.9 °F 69.1 °F 69% 29.80 in 10.0 mi SSW 6.9 mph - 0.00 in Rain , Thunderstorm Light Thunderstorms and Rain
7:54 PM 80.1 °F 83.2 °F 70.0 °F 71% 29.78 in 10.0 mi SSW 8.1 mph - 0.00 in Thunderstorm Thunderstorm
8:54 PM 75.9 °F - 66.0 °F 71% 29.79 in 10.0 mi SSW 10.4 mph - N/A   Mostly Cloudy
9:49 PM 77.0 °F - 69.8 °F 78% 29.81 in 9.0 mi South 11.5 mph - 0.00 in Rain , Thunderstorm Light Thunderstorms and Rain
9:54 PM 75.9 °F - 71.1 °F 85% 29.79 in 8.0 mi South 11.5 mph - 0.00 in Rain , Thunderstorm Light Thunderstorms and Rain
10:48 PM 64.4 °F - 62.6 °F 94% 29.83 in 1.5 mi NNW 41.4 mph 55.2 mph 0.29 in Rain , Thunderstorm Heavy Thunderstorms and Rain
10:54 PM 64.9 °F - 61.0 °F 87% 29.83 in 5.0 mi North 24.2 mph 55.2 mph 0.46 in Rain , Thunderstorm Light Thunderstorms and Rain
11:01 PM 66.0 °F - 61.0 °F 84% 29.85 in 7.0 mi North 17.3 mph 35.7 mph 0.04 in Rain , Thunderstorm Light Thunderstorms and Rain
11:15 PM 66.9 °F - 60.1 °F 79% 29.85 in 10.0 mi NNW 3.5 mph - 0.04 in Rain , Thunderstorm Light Thunderstorms and Rain
11:54 PM 68.0 °F - 63.0 °F 84% 29.82 in 10.0 mi West 6.9 mph - 0.04 in Rain , Thunderstorm Light Thunderstorms and Rain